Погода в Филадельфии

США     39°57′04″N   75°09′50″W
темп.,
°C
ветер,
м/с
пор.,
м/с
влажн.,
%
обл.,
%
осадки,
мм/ч
давл.,
гПа
погр.,
м
21 октября, чт
чт2123:00+17зюз27665 0.0 1018191
02:00+16зюз266848 0.0 1017168
05:00+15зюз236526 0.0 101786
08:00+15зюз236353 0.0 101778
11:00+21ююз3543100 0.0 1016474
14:00+24юз35333 0.0 10141440
17:00+24ююз47353 0.0 10111254
20:00+20ю311470 0.0 1011454
22 октября, пт
пт2223:00+19ююз5165286 0.0 1010766
02:00+19юз4135643 0.1 1010676
05:00+17з411723 0.0 10111030
08:00+14з397320 0.0 1013586
11:00+17з35555 0.0 1014849
14:00+19з344610 0.0 10131537
17:00+18з445157 0.0 10131422
20:00+16зсз3566100 0.1 1015565
23 октября, сб
сб2323:00+15сз3468100 0.0 1015516
02:00+15сз1270100 0.0 1015449
05:00+14зсз2368100 0.0 1015420
08:00+14зсз2370100 0.0 1016429
11:00+14сз2468100 0.0 1017511
14:00+16з47525 0.0 10161167
17:00+17з485272 0.0 10161482
20:00+15з376114 0.0 1017750
24 октября, вс
вс2423:00+13з28705 0.0 1018432
02:00+12з267521 0.0 1019296
05:00+12зюз2370100 0.0 1020171
08:00+12зюз1269100 0.1 1020191
11:00+15ююз12638 0.0 1020444
14:00+18ю355382 0.0 10181022
17:00+18св115698 0.0 101654
20:00+15св3479100 0.4 1016188
25 октября, пн
пн2523:00+13св2390100 1.6 1016212
02:00+13ссв3493100 3.1 1017311
05:00+12св4792100 0.5 1017483
08:00+11всв41089100 0.5 1018596
11:00+11всв41085100 0.0 1018684
14:00+11всв41191100 1.8 1016742
17:00+12в41295100 5.8 1014729
20:00+12св41096100 7.5 1014603